Location: ??????????
(54.8537°N, 38.8755°E)
Time: 21:33:00
(UTC+00:00)

Tiros 1 - Pass Details

Date: 20 September 2024
Orbit: 623 x 654 km, 48.4° (Epoch: 09 October)

Event Time Altitude Azimuth Distance (km) Brightness Sun altitude
Rises 13:27:02 0° 251° (WSW) 2,898 12.4 16.2°
Reaches altitude 10° 13:29:28 10° 243° (WSW) 1,992 12.4 15.8°
Maximum altitude 13:33:40 37° 176° (S) 978 8.5 15.3°
Drops below altitude 10° 13:37:54 10° 109° (ESE) 2,003 9.3 14.7°
Sets 13:40:21 0° 102° (ESE) 2,915 10.0 14.4°
